STARLINK-35438, 66347

Orbit data source: Space-Track

STARLINK-35438, 66347 is a payload satellite owned by SpaceX/Seattle (US) in LEO that was launched on Thu, 06 Nov 2025 UTC via an FALCON 9 launch vehicle from the Air Force Eastern Test Range (AFETR). Payload-class satellites include a variety of spacecraft equipped with specific instruments for various scientific and technological missions. These include communications satellites like Starlink; space stations such as the ISS; scientific satellites like the Hubble; Earth observation satellites from companies like Planet Labs, Umbra, and HawkEye 360; GPS; miniature CubeSats for education and research; and military/defense satellites.

Loading next visibility...
Identifier
66347, 2025-253AE
Orbit
LEO
Country
Flag of USUS
Related business
Manufacturer
SpaceX/Seattle
Mission
Operational Commercial Communications
Bus & Motor
STARLINK V2MO, Unknown motor
Mass
575 kg wet, ~530 kg dry
Launch date (UTC)
2025-11-06 (7 months ago)
Launch vehicle
FALCON 9
Launch site
Air Force Eastern Test Range (AFETR)
Object type
Payload
Rocket body
Debris
Shape & HBR
Box + 2 Pan, 17.7 m
Radar Cross Section
36.964 m², Large (>1 m²)

Expand to show TLE details & history
Last TLE update: 16 hours ago

TLE from 16 hours ago
0 STARLINK-35438
1 66347U 25253AE  26170.53332619  .00014943  00000-0  55143-3 0  9993
2 66347  43.0015 357.0384 0002344 277.9415  82.1170 15.27579065 35823
Epoch: 2026-06-19T12:47Z
TLE epoch observation values (Epoch: 2026-06-19T12:47:59.382Z)
Latitude
-0.00007°
Longitude
-102.72004°
Altitude
482.607 km
Speed
7.626 km/s
True Right ascension
23h 48m 09s
True Declination
0° 00' 00"
Sunlit
Object was in daylight at epoch
Visualization orbit readout
Latitude
Unknown
Longitude
Unknown
Altitude
Unknown
Speed
Unknown
Apparent Right ascension
Unknown
Apparent Declination
Unknown
Sunlit
N/A
Visualization observer readout
Local Sidereal Time
16:03:33
Azimuth
Unknown
Elevation
Unknown
Doppler factor
Unknown
Orbital elements
Apogee altitude
486.606 km
Perigee altitude
483.388 km
Semi-major axis
6,863.134 km
Eccentricity
0.00023
Inclination
43.0015°
RAAN
357.0384°
Arg. of periapsis
277.9415°
True anomaly
82.14361°
Mean anomaly
82.117°
Eccentric anomaly
82.1303°
Mean motion
3.81733 °/min
Orbital period
94.31 mins
BSTAR
0.00055143
Loading maneuver chart data...
Computing Atmospheric mass density...
Loading historical data...
Loading historical data...
Loading historical data...
Loading historical data...
Loading historical data...
Loading historical data...
Loading historical data...

Documentation

Showing up to 5 results
|